Presure
126 139 123 161 116 134 140 127 105 144 138 138 116 114 156 103 128 148 126 179 126 146 121 176 144 159 164 176 159 128 151 130 144 170 169 153 182 182 139 187 151 182 147 186 149 199 208 180 223
129 112 95 125 136 141 113 116 165 126 155 147 113 125 138 113 109 177 113 125 170 128 147 170 161 163 156 128 162 157 135 175 166 179 167 124 156 169 171 159 178 178 181 165 187 184 202 203 221
105 123 99 123 108 114 151 131 135 132 134 132 109 116 159 152 126 106 134 133 115 163 145 171 143 151 123 135 128 126 165 164 165 172 157 185 145 127 146 150 167 155 155 153 194 155 190 190 183
138 121 103 110 137 138 112 155 109 124 126 100 154 153 156 144 112 143 148 123 173 165 153 161 161 126 160 159 150 170 158 146 152 181 165 155 166 158 160 170 167 170 133 162 139 198 185 181 172
140 132 130 112 120 103 128 128 140 148 149 153 146 136 135 135 153 137 163 123 156 118 147 116 164 176 161 169 157 165 167 158 126 146 177 163 126 152 140 173 169 167 178 170 178 193 193 186 161
117 119 130 128 116 126 126 134 146 162 157 139 127 144 132 131 130 144 130 132 126 125 149 148 120 130 157 171 162 154 154 152 157 164 181 160 142 131 171 167 158 135 143 178 180 184 167 193 169
104 133 126 134 112 156 90 147 145 147 149 148 164 134 111 132 118 123 144 136 127 136 126 150 167 152 138 152 159 167 166 177 182 166 128 124 167 162 178 167 136 171 142 187 188 187 174 180 178
134 139 140 139 151 151 145 155 128 170 142 132 158 143 121 128 126 107 150 142 128 113 141 176 159 154 170 137 144 168 166 169 158 160 133 182 161 172 155 135 173 143 183 177 193 184 190 181 187
130 128 140 147 139 141 132 146 155 154 139 155 147 148 118 127 143 130 144 150 141 138 163 160 163 160 170 160 157 170 155 144 152 160 153 163 137 162 137 167 172 178 193 180 200 179 181 172 188
158 155 151 151 132 151 125 142 144 141 136 125 116 120 138 139 139 156 128 150 120 148 138 166 161 164 177 175 179 132 134 157 174 167 164 163 150 167 129 196 188 179 192 187 191 166 175 183 199
169 137 142 149 106 154 160 131 158 142 105 117 111 109 139 142 168 155 147 133 138 160 160 129 160 169 182 180 172 179 172 172 161 163 163 160 162 176 166 190 187 188 172 193 175 188 171 182 198
143 184 154 102 112 109 117 151 102 155 137 131 123 123 164 162 161 152 126 154 163 165 170 142 177 170 179 158 169 156 152 151 154 158 167 160 174 189 195 195 191 185 169 187 182 181 171 170 188
130 153 137 134 128 124 114 140 150 157 131 155 152 153 150 146 148 156 159 166 167 172 138 171 149 173 171 146 162 146 166 157 158 180 167 185 181 185 173 178 170 179 183 183 180 170 172 169 178
155 160 161 151 157 145 151 154 153 151 140 155 175 156 163 162 154 160 160 178 165 158 158 162 170 152 179 154 150 152 154 155 157 163 161 168 164 170 179 188 172 165 179 169 175 172 172 181 186
160 153 152 159 164 146 161 159 161 162 163 140 165 165 162 164 168 167 180 155 151 158 172 178 179 149 188 178 155 150 145 168 171 171 170 183 184 186 141 192 172 174 166 178 187 174 190 190 184
162 154 158 151 164 161 168 147 170 165 161 165 170 151 175 177 177 168 167 177 164 156 187 182 182 176 165 168 165 171 172 153 173 203 179 169 178 165 168 180 194 182 179 187 194 187 197 196 189
146 156 160 152 168 173 172 167 184 160 182 174 171 178 164 167 171 162 166 163 166 170 149 177 178 171 162 152 158 146 167 164 166 184 162 179 166 172 170 181 184 177 195 193 205 198 200 199 188
172 167 158 160 174 162 157 169 167 188 169 176 166 175 169 170 160 141 168 180 174 173 175 165 168 147 148 145 160 157 158 156 147 155 162 180 178 171 184 194 189 193 197 200 202 200 211 202 194
172 168 164 165 181 161 172 162 186 168 165 178 181 180 181 179 178 176 177 183 161 172 161 166 155 161 143 145 160 166 182 184 185 183 184 187 210 194 172 198 189 191 203 190 211 215 202 196 182
174 166 167 161 157 159 154 165 163 166 174 172 175 183 179 180 180 166 174 167 175 159 164 150 152 146 158 159 167 177 200 191 186 194 114 189 189 191 190 160 170 188 202 217 200 197 182 164 191
163 166 174 163 155 160 163 172 158 179 175 195 183 177 180 178 166 166 162 165 161 153 169 158 174 157 121 156 174 196 199 185 187 192 177 197 179 76 81 181 187 197 194 174 168 195 197 213 179
171 176 172 168 174 177 162 165 173 200 176 176 185 192 183 178 172 160 170 179 181 183 113 180 93 228 190 173 190 207 189 205 186 83 104 186 195 172 180 182 175 188 173 179 183 178 192 198 205
168 173 174 173 185 173 180 171 157 164 187 180 171 169 181 178 86 173 176 175 145 67 184 74 233 239 223 219 225 224 212 187 186 113 202 190 185 187 183 194 193 174 180 187 188 191 188 188 200
183 185 190 188 179 176 183 177 181 179 164 181 185 180 184 177 182 181 173 182 189 238 246 228 225 214 219 217 222 216 215 213 189 191 121 189 193 191 181 189 196 185 188 189 186 178 178 184 197
176 179 175 171 185 189 191 192 195 160 169 172 173 180 178 182 182 187 183 188 229 238 231 226 227 224 222 220 218 214 204 199 199 197 201 192 183 177 182 173 171 185 183 173 183 182 179 188 199
184 186 164 184 175 188 188 189 183 167 168 168 176 177 180 187 191 208 204 231 215 193 227 230 226 218 220 224 215 220 202 188 190 185 187 188 187 184 195 194 195 187 189 187 183 170 207 200 197
181 180 179 177 171 183 176 177 191 171 179 177 177 184 186 200 194 213 235 225 199 204 204 214 214 195 200 206 209 215 193 194 201 203 205 207 209 216 169 212 202 200 211 207 196 228 226 223 215
186 190 186 185 187 174 188 176 166 177 171 177 181 188 203 209 262 235 231 197 198 202 203 200 201 191 202 203 199 184 163 165 196 202 201 211 223 211 227 226 250 255 167 257 241 233 162 228 226
180 180 188 189 186 180 194 169 182 174 179 175 183 219 211 259 247 228 199 193 194 209 205 204 203 204 200 211 200 200 200 215 177 213 205 221 229 229 229 246 260 263 260 258 254 253 238 231 230
171 166 170 176 179 193 185 173 183 183 183 186 192 213 212 219 191 193 201 196 194 203 187 214 211 163 205 220 175 175 223 184 184 230 223 186 235 240 258 260 262 253 250 244 108 253 249 247 247
Wind_Speed
39 39 47 38 45 42 42 46 39 44 44 45 41 42 42 44 45 40 46 41 50 44 41 39 51 41 39 41 42 43 50 44 51 44 42 49 37 38 33 48 54 52 33 46 33 44 41 29 33
40 42 37 47 45 44 43 46 37 47 43 49 42 42 41 46 46 46 47 48 41 34 48 41 42 42 49 44 45 46 50 46 45 44 45 36 45 42 40 42 43 44 56 36 43 39 40 39 32
37 42 46 49 47 46 46 49 49 49 51 52 44 45 44 44 51 48 48 51 48 45 47 47 47 45 47 49 49 47 50 45 47 46 48 50 48 38 41 55 44 51 52 37 52 33 43 36 29
45 44 46 47 48 49 50 48 49 49 51 46 48 50 49 50 50 52 54 48 51 48 51 51 48 53 53 49 53 51 50 55 53 51 47 51 50 51 51 43 46 45 35 49 41 46 40 42 32
51 46 48 49 45 38 49 43 47 51 49 49 52 52 56 56 53 54 48 52 51 49 52 46 54 60 57 58 56 55 54 54 46 56 56 52 46 54 54 47 45 41 54 45 57 57 44 42 33
50 48 49 49 45 48 49 50 50 54 53 55 49 57 55 56 55 58 52 58 55 56 57 58 50 59 59 60 58 58 58 58 59 62 61 58 58 50 55 51 49 42 52 54 55 59 40 44 38
46 59 55 56 46 53 45 53 52 53 54 55 60 60 46 57 47 52 62 60 54 61 58 62 66 60 62 62 61 62 61 63 63 63 51 43 62 60 59 54 42 54 46 65 62 55 42 44 44
61 63 62 60 58 54 54 55 56 60 56 59 58 56 55 60 59 53 67 69 60 50 66 71 68 67 71 65 69 69 64 64 64 67 56 66 65 65 60 43 59 45 67 52 61 50 47 45 43
63 66 68 67 61 59 59 57 52 54 55 58 62 63 59 64 67 70 65 71 74 74 72 69 71 71 75 72 75 73 68 62 69 70 71 69 52 65 48 64 62 66 65 59 57 48 47 42 41
67 67 69 64 63 67 52 61 64 57 57 64 59 60 67 72 71 71 64 72 63 73 74 74 73 76 79 78 75 63 72 72 70 68 70 73 70 76 50 75 71 69 63 59 54 45 45 46 40
65 74 71 73 38 70 73 59 68 65 50 63 54 63 75 76 73 73 76 74 74 75 76 67 76 78 76 72 72 70 70 73 75 76 78 78 80 86 72 74 74 61 60 59 53 54 48 46 44
71 67 69 47 45 44 55 73 56 75 72 73 66 70 74 76 76 78 76 79 81 81 80 70 73 72 70 74 67 73 74 77 78 79 84 84 90 81 72 66 61 62 63 63 60 55 50 48 51
76 74 78 79 75 61 62 79 77 79 71 79 77 79 79 81 80 79 81 82 81 80 75 75 72 63 68 65 71 75 72 77 79 85 82 83 81 71 76 70 76 71 72 65 62 58 54 51 54
77 73 71 79 77 82 80 82 83 80 81 83 80 81 80 81 84 84 85 78 78 80 82 73 65 63 62 75 82 82 82 83 85 87 89 87 88 84 82 76 70 71 75 67 66 64 64 61 60
80 79 81 79 77 81 79 82 82 83 84 83 85 82 83 83 82 81 78 80 81 79 82 73 69 72 62 58 74 83 84 87 90 89 94 80 91 78 49 71 86 79 74 77 73 68 68 65 60
82 82 81 81 84 83 79 82 81 83 86 87 84 87 84 81 80 77 77 80 78 83 84 80 75 71 68 74 74 82 79 85 85 71 75 95 86 97 95 87 85 86 84 82 76 68 72 67 58
84 82 83 86 86 82 78 79 80 84 80 80 83 85 87 84 81 81 85 81 82 80 72 81 77 70 65 81 83 80 87 85 83 64 94 84 95 97 97 94 90 91 84 80 71 66 65 64 56
86 86 85 86 87 82 83 79 82 86 81 85 86 89 89 87 83 85 85 91 93 81 83 75 74 78 75 87 86 90 95 81 82 75 96 91 96 97 99 90 93 90 85 78 73 66 67 62 55
90 89 91 89 86 84 87 82 93 85 86 97 99 97 99 96 95 92 92 97 77 85 75 75 74 71 84 89 92 94 96 85 83 89 91 90 77 92 94 89 92 89 84 76 75 72 59 54 56
87 89 91 90 86 86 86 90 89 90 94 93 97 99 99 99 98 84 91 86 93 85 85 85 81 81 77 86 93 95 73 75 76 76 36 84 82 87 88 71 86 82 88 77 66 63 62 62 56
91 93 95 89 87 88 90 94 92 103 98 97 96 96 96 94 87 85 83 85 85 88 92 89 89 91 47 87 89 81 76 76 77 75 82 79 82 19 25 92 91 89 87 75 80 80 67 73 66
97 100 97 93 97 99 88 93 99 97 92 92 97 99 95 88 86 84 90 95 98 102 50 92 35 76 78 72 80 71 76 68 75 28 32 78 73 90 92 90 93 88 94 91 93 84 85 79 69
99 97 98 98 102 92 96 88 83 91 96 91 85 85 90 88 29 90 93 96 89 22 104 29 80 72 80 74 62 64 64 74 73 38 74 76 79 83 87 88 86 97 96 92 92 90 88 88 90
107 108 110 107 99 90 96 90 89 93 85 92 93 88 96 92 98 101 96 107 107 82 73 77 76 79 74 72 72 72 70 68 76 72 48 75 76 80 87 89 86 92 95 95 95 86 89 88 90
105 108 99 97 105 100 98 96 100 77 83 88 90 96 96 105 107 110 108 107 86 74 77 79 78 77 75 73 73 72 70 70 71 76 77 78 84 90 88 94 95 95 96 93 96 90 91 93 94
111 111 95 107 91 97 94 93 90 79 82 83 93 98 105 112 110 108 105 87 83 84 78 78 80 80 80 78 73 74 72 80 78 81 82 85 89 94 90 92 92 97 100 102 102 92 106 101 100
110 109 110 100 85 95 81 81 103 82 93 93 101 109 105 110 103 99 87 83 83 82 80 78 78 78 77 77 79 80 80 81 80 81 84 86 88 90 84 93 95 99 103 104 105 105 107 112 113
113 116 114 112 111 90 98 82 72 87 87 100 107 111 113 107 84 88 85 82 82 81 81 82 80 80 80 82 83 92 75 76 89 88 89 91 93 94 96 97 96 95 55 93 99 102 63 107 108
106 100 113 117 106 98 105 69 91 89 102 93 105 111 102 86 83 83 85 85 82 84 82 83 84 83 83 88 88 90 92 91 72 94 93 97 98 98 97 98 96 93 92 92 95 100 105 108 111
93 91 94 95 96 111 98 72 99 103 104 105 107 105 101 92 84 86 86 87 86 88 89 93 91 93 91 95 96 99 97 102 103 98 95 95 100 101 98 96 93 90 90 91 29 96 99 102 104
Wind_Direction
284 280 288 297 301 290 292 292 308 296 295 297 306 305 312 310 303 318 300 326 306 315 315 324 307 308 316 329 316 312 309 316 319 317 317 322 337 339 313 354 322 349 311 342 311 338 332 325 327
280 293 302 289 287 287 300 304 302 297 303 300 300 301 304 298 309 323 307 303 322 296 315 318 313 315 316 311 315 309 315 328 316 327 319 302 319 325 320 314 340 346 347 329 339 335 334 331 331
295 285 298 290 302 299 295 296 296 297 298 300 302 300 313 306 299 307 306 300 309 310 312 319 310 308 313 313 315 313 317 314 316 319 311 330 316 298 317 316 331 316 318 322 342 310 333 333 327
283 283 292 292 289 291 299 297 301 298 297 303 307 307 310 298 303 299 304 307 319 312 303 307 308 312 322 313 307 321 309 307 310 326 310 310 318 313 316 320 323 330 296 321 294 337 330 328 319
284 285 286 293 290 293 295 298 299 300 298 304 297 300 294 295 302 299 308 308 300 306 311 308 313 327 322 320 314 317 318 314 307 312 327 314 305 310 315 317 320 323 338 333 342 342 333 327 323
286 285 285 287 288 290 292 296 299 306 303 290 302 293 296 297 301 302 304 303 306 306 307 304 308 308 310 317 312 312 309 315 312 319 326 308 310 312 314 310 313 311 312 335 338 338 325 333 315
284 286 288 286 284 288 301 295 294 296 297 297 309 290 292 297 297 296 299 307 306 306 307 302 317 309 304 309 312 315 314 324 324 321 293 294 313 310 322 310 310 321 311 332 336 334 327 330 325
281 282 283 285 286 289 290 298 288 305 284 291 304 302 299 303 304 299 298 299 306 293 303 312 312 310 315 311 312 317 318 322 311 313 306 319 308 316 305 311 320 311 326 318 332 331 334 329 325
280 283 283 286 286 285 282 288 296 298 298 299 292 291 302 300 296 302 300 300 302 305 308 311 313 312 316 314 314 318 315 304 310 311 308 311 307 305 301 310 317 324 323 326 326 329 331 323 323
287 289 286 292 287 283 285 282 282 288 289 294 297 296 291 291 295 298 298 300 293 302 305 313 312 313 314 317 315 300 304 309 315 312 310 309 306 308 309 318 318 320 319 323 320 319 323 324 325
286 283 280 285 282 292 293 292 293 287 277 297 294 288 293 294 298 297 295 298 299 305 307 304 312 311 313 314 313 310 313 317 312 316 311 308 306 311 313 312 313 312 316 319 314 319 319 320 325
280 283 281 274 289 284 283 291 279 293 287 288 295 296 297 299 301 296 301 300 304 304 304 302 307 307 310 306 307 307 307 307 308 307 309 307 310 308 309 308 307 309 311 314 314 314 313 312 318
280 279 281 284 287 288 283 290 289 289 292 292 293 293 294 294 295 297 297 299 301 303 299 307 304 311 313 307 304 302 308 305 305 313 308 304 304 305 306 306 305 305 308 310 310 310 310 309 309
275 275 275 276 277 283 284 284 284 287 289 289 292 291 292 291 293 294 297 297 301 302 304 305 307 305 310 302 303 304 305 303 303 307 302 304 300 305 302 304 304 308 307 310 310 309 307 306 306
271 273 275 276 281 279 281 282 286 286 288 292 290 290 289 290 291 293 295 295 299 298 305 305 305 298 307 299 300 298 300 304 305 302 303 302 302 302 303 301 302 303 305 303 305 305 303 302 303
276 275 278 277 281 278 285 283 285 284 285 287 288 289 289 290 293 290 291 295 292 293 306 308 312 312 309 309 303 302 301 300 303 299 297 302 297 305 305 298 295 298 301 300 301 303 301 302 300
277 276 278 278 281 282 283 282 290 283 293 286 286 291 287 288 290 288 294 293 299 301 299 308 309 311 308 300 300 296 300 301 300 295 300 295 300 300 301 296 291 296 292 297 298 300 301 299 296
276 274 275 275 282 280 280 286 285 293 286 290 285 289 287 288 288 290 297 303 302 302 305 299 306 294 301 296 301 298 298 297 304 301 295 292 292 295 294 290 290 292 294 296 298 300 298 297 295
277 277 277 278 285 281 288 283 294 288 286 294 297 296 295 295 297 300 302 303 294 302 294 299 293 298 293 294 297 297 289 284 279 280 279 284 281 286 295 289 291 295 292 299 293 294 296 292 290
278 276 277 279 280 283 286 290 288 291 294 293 294 294 294 295 298 299 302 297 301 291 293 288 289 291 296 295 294 295 278 280 281 279 285 286 288 288 288 292 302 294 296 293 295 293 292 298 290
274 276 279 277 279 282 284 287 288 288 289 288 290 291 292 294 295 295 294 296 293 290 291 294 291 293 299 288 291 290 281 287 283 282 286 284 291 300 298 292 295 296 298 294 300 300 293 294 292
277 277 278 278 280 282 281 284 288 287 290 294 294 291 295 295 296 291 295 298 297 298 297 293 299 299 298 282 290 284 284 279 283 304 287 285 283 288 287 289 294 292 297 298 298 299 296 296 291
277 279 279 278 282 280 285 284 284 290 291 292 293 292 295 298 296 299 300 298 294 295 298 300 302 297 296 292 283 282 279 278 278 288 278 281 282 281 286 288 286 291 291 291 290 291 293 296 293
277 279 281 282 280 283 282 284 288 289 288 294 296 298 300 297 300 296 298 301 299 300 293 298 293 295 292 292 290 287 284 282 278 281 291 280 280 279 283 285 286 286 285 286 287 291 292 290 285
276 278 278 279 283 282 284 288 288 284 292 298 300 303 301 301 296 299 298 298 296 295 295 294 292 292 291 289 288 288 285 283 282 283 283 280 278 280 279 283 287 283 284 290 287 288 287 285 281
276 278 278 279 281 285 286 287 288 288 294 297 303 301 299 296 297 297 297 301 299 297 295 293 292 293 292 292 289 288 279 275 277 277 278 278 277 277 276 275 275 278 276 278 282 286 275 278 278
275 277 277 281 281 283 283 287 287 293 299 299 298 297 297 298 295 298 299 297 298 298 297 296 292 291 291 293 290 289 277 278 279 279 278 277 276 278 290 274 273 274 273 273 275 268 268 268 270
276 276 278 280 281 280 284 285 294 300 297 296 297 296 296 297 296 297 297 295 296 296 294 291 289 286 289 288 287 280 298 291 281 281 280 283 284 280 282 282 282 279 276 265 264 266 270 267 266
274 277 278 278 281 285 287 288 296 296 296 296 295 295 297 297 295 295 294 293 294 297 295 293 291 290 285 290 284 283 287 284 283 285 285 287 287 285 284 284 280 276 272 269 265 262 262 263 265
275 274 276 281 286 284 293 293 295 294 295 291 292 295 296 298 292 292 294 294 292 295 276 297 296 298 289 291 295 295 287 287 286 287 287 292 287 285 284 281 276 275 273 273 283 266 265 265 265